Regional Weather Roundup
Issued by NWS Kansas City/Pleasant Hill, MO

Home | Current Version | Previous Version | Text Only | Print | Product List | Glossary On
Versions: 1 2 3 4 5 6 7 8 9 10 11 12 13 14 15 16 17 18 19 20 21 22 23 24 25 26 27 28 29 30 31 32 33 34 35 36 37 38 39 40 41 42 43 44 45 46 47 48 49 50
803
ASUS43 KEAX 232310
RWREAX

WEATHER ROUNDUP FOR EASTERN KANSAS AND NORTHWEST MISSOURI
NATIONAL WEATHER SERVICE KANSAS CITY/PLEASANT HILL MO
600 PM CDT THU MAR 23 2017

KSZ040-057-103>105-MOZ028-029-037-043-240000-
...KANSAS CITY METROPOLITAN AREA...

CITY           SKY/WX    TMP DP  RH WIND       PRES   REMARKS
K.C. INTL      MOSUNNY   79  52  38 S21G32    29.76F
K.C. DOWNTOWN  SUNNY     81  51  35 S26G37    29.77F
LEES SUMMIT    SUNNY     79  50  36 S21G36    29.79F
OLATHE - IXD   SUNNY     77  48  35 S23G33    29.78F
OLATHE - OJC   SUNNY     77  48  35 S23G35    29.79S
LAWRENCE       SUNNY     80  51  36 S21G30    29.75F

$$

MOZ001>008-011>017-020>025-030>033-038>040-044>046-053-054-240000-
...NORTHERN AND CENTRAL MISSOURI...

CITY           SKY/WX    TMP DP  RH WIND       PRES   REMARKS
ST. JOSEPH     SUNNY     80  53  39 S25G32    29.74F
MOSBY          CLEAR     79  48  34 S17G29    29.78F
WARRENSBURG    SUNNY     77  45  31 S21G30    29.82F
WHITEMAN AFB   SUNNY     77  48  36 S25G35    29.83F
CLINTON        SUNNY     77  50  38 S18G24    29.86F
SEDALIA        SUNNY     78  46  32 S25G32    29.87F
WARSAW         NOT AVBL
CHILLICOTHE      N/A     79  45  29 S12G28    29.80F
KIRKSVILLE     SUNNY     64  39  39 SE17G24   29.86F

$$

MOZ041-047>049-056>058-063>065-088>090-097-240000-
...EASTERN AND SOUTHERN MISSOURI...

CITY           SKY/WX    TMP DP  RH WIND       PRES   REMARKS
ST. LOUIS INTL MOSUNNY   61  43  51 SE20      30.03F
SPIRIT OF STL  SUNNY     65  41  41 SE13      29.99F
COLUMBIA       SUNNY     77  48  35 S24G31    29.90F
JEFFERSON CITY SUNNY     80  48  32 S15       29.90F
ROLLA          SUNNY     74  51  44 S14G26    29.95F
OSAGE BEACH    SUNNY    N/A N/A N/A S14G24    29.93F
SPRINGFIELD    SUNNY     77  47  34 S24       29.92F
BRANSON        MOSUNNY   75  43  31 S14G25    29.98F
JOPLIN         SUNNY     76  46  34 S23G32    29.88F
WEST PLAINS    SUNNY     73  51  46 S10       30.04F

$$

IAZ060-094-KSZ022-034>040-054-083-096-NEZ052-066-093-240000-
...KANSAS...SOUTHEAST NEBRASKA AND IOWA...

CITY           SKY/WX    TMP DP  RH WIND       PRES   REMARKS
TOPEKA         SUNNY     78  52  40 S23G31    29.74F
MANHATTAN      MOSUNNY   78  53  41 S22G30    29.68F
EMPORIA        SUNNY     76  51  41 S25G32    29.74F
CHANUTE        SUNNY     76  48  37 S24G35    29.81F
WICHITA        MOSUNNY   81  51  35 S23G38    29.69F
OMAHA          PTSUNNY   75  51  43 S14       29.65F
LINCOLN        CLOUDY    73  53  49 S15G24    29.65S
FALLS CITY     MOSUNNY   79  52  38 S18G30    29.69F
LAMONI         SUNNY     77  50  38 S20G30    29.77F
DES MOINES     PTSUNNY   57  38  48 E10       29.80F

$$





USA.gov is the U.S. government's official web portal to all federal, state and local government web resources and services.